Regional Weather Roundup
Issued by NWS

Home | Current Version | Previous Version | Graphics & Text | Print | Product List | Glossary On
Versions: 1 2 3 4 5 6 7 8 9 10 11 12 13 14 15 16 17 18 19 20 21 22 23 24 25 26 27 28 29 30 31 32 33 34 35 36 37 38 39 40 41 42 43 44 45 46 47 48 49 50
000
ASUS43 KLMK 182210
RWRKY
KENTUCKY REGIONAL WEATHER ROUNDUP
NATIONAL WEATHER SERVICE LOUISVILLE KY
500 PM EST SUN FEB 18 2018

NOTE "FAIR" INDICATES FEW OR NO CLOUDS BELOW 12,000 FEET
WITH NO SIGNIFICANT WEATHER AND/OR OBSTRUCTIONS TO VISIBILITY.

KYZ001>023-026-027-061>063-070>075-182300-
WESTERN AND SOUTH CENTRAL KENTUCKY

CITY           SKY/WX    TMP DP  RH WIND       PRES   REMARKS
PADUCAH        FAIR      55  34  45 SE8       30.10F
HENDERSON      FAIR      51  34  52 SE8       30.15F
OWENSBORO      FAIR      52  34  50 S10       30.15F
HOPKINSVILLE   FAIR      56  29  36 E8        30.12F
BOWLING GREEN  FAIR      57  32  38 S7        30.17F
GLASGOW        FAIR      55  30  38 S7        30.18S
$$

KYZ024-025-028>034-038-045-046-053-182300-
NORTH CENTRAL KENTUCKY

CITY           SKY/WX    TMP DP  RH WIND       PRES   REMARKS
LOUISVILLE/SDF CLOUDY    52  32  46 SE12      30.18F
LOUISVILLE/LOU FAIR      51  31  46 SE12      30.19F
FORT KNOX      FAIR      50  33  51 E9        30.17F
$$

KYZ035>037-039>044-047>052-055>060-089>105-182300-
NORTHEAST KENTUCKY

CITY           SKY/WX    TMP DP  RH WIND       PRES   REMARKS
LEXINGTON      FAIR      51  31  46 E10       30.21F
COVINGTON      CLOUDY    46  35  65 SE10      30.20F
FRANKFORT      FAIR      52  31  44 SE9       30.19F
$$

KYZ054-064>069-076>088-106>120-182300-
SOUTHEAST KENTUCKY

CITY           SKY/WX    TMP DP  RH WIND       PRES   REMARKS
JACKSON        FAIR      52  30  43 VRB6      30.21F
LONDON         FAIR      56  32  40 SE7       30.19F
SOMERSET       FAIR      55  32  41 S5        30.21F
MIDDLESBORO    FAIR      57  34  42 SE3       30.22F
MONTICELLO     NOT AVBL
$$




USA.gov is the U.S. government's official web portal to all federal, state and local government web resources and services.